This is the latest recevied weather packets stored in our database for station/object DL1NER. If no packets are shown the sender has not sent any weather packets the latest 10 day(s).
| Time | Temp. | Humidity | Pressure | Rain* | Wind** | Luminosity | Snow |
|---|---|---|---|---|---|---|---|
| 1777557012 | 17.78° C | 23% | 1027.9 hPa | 0 mm | - | 0 W/m² | - |
| 1777556412 | 17.22° C | 20% | 1028 hPa | 0 mm | - | 0 W/m² | - |
| 1777555812 | 17.22° C | 22% | 1027.9 hPa | 0 mm | - | 0 W/m² | - |
| 1777555212 | 17.22° C | 21% | 1028.1 hPa | 0 mm | - | 0 W/m² | - |
| 1777554612 | 16.67° C | 25% | 1028.3 hPa | 0 mm | - | 0 W/m² | - |
| 1777554012 | 16.67° C | 21% | 1028.3 hPa | 0 mm | - | 0 W/m² | - |
| 1777553412 | 16.67° C | 25% | 1028.5 hPa | 0 mm | - | 0 W/m² | - |
| 1777552811 | 16.67° C | 25% | 1028.8 hPa | 0 mm | - | 0 W/m² | - |
| 1777552212 | 16.67° C | 25% | 1028.8 hPa | 0 mm | - | 0 W/m² | - |
| 1777551611 | 16.11° C | 22% | 1028.9 hPa | 0 mm | - | 0 W/m² | - |
| 1777551010 | 16.11° C | 25% | 1028.9 hPa | 0 mm | - | 0 W/m² | - |
| 1777550412 | 16.11° C | 23% | 1029 hPa | 0 mm | - | 0 W/m² | - |
| 1777549810 | 15.56° C | 23% | 1029.2 hPa | 0 mm | - | 0 W/m² | - |
| 1777549211 | 15.56° C | 24% | 1029.2 hPa | 0 mm | - | 0 W/m² | - |
| 1777548610 | 15.56° C | 29% | 1029.4 hPa | 0 mm | - | 0 W/m² | - |
| 1777548011 | 15.56° C | 29% | 1029.4 hPa | 0 mm | - | 0 W/m² | - |
| 1777547411 | 15.56° C | 25% | 1029.5 hPa | 0 mm | - | 0 W/m² | - |
| 1777546810 | 14.44° C | 23% | 1029.6 hPa | 0 mm | - | 0 W/m² | - |
| 1777546210 | 14.44° C | 23% | 1029.6 hPa | 0 mm | - | 0 W/m² | - |
| 1777545611 | 14.44° C | 25% | 1029.6 hPa | 0 mm | - | 0 W/m² | - |
| 1777545011 | 13.89° C | 25% | 1029.7 hPa | 0 mm | - | 0 W/m² | - |
| 1777544411 | 13.89° C | 24% | 1029.8 hPa | 0 mm | - | 0 W/m² | - |
| 1777543811 | 13.33° C | 26% | 1029.9 hPa | 0 mm | - | 0 W/m² | - |
| 1777543210 | 13.33° C | 29% | 1029.9 hPa | 0 mm | - | 0 W/m² | - |
| 1777542610 | 13.33° C | 25% | 1030 hPa | 0 mm | - | 0 W/m² | - |
* Rain latest hour (hover to see other rain measurements)
** Current wind speed in m/s (hover to see current wind gust speed)